• In Switzerland
  • List of Countries
  • For 7 days
  • Water Temperature
  • Satellite Maps
  • Weather Map
  • Weather Widgets
  • user-avatar
    Login

    Hourly Weather Canberra

    Today, 26 May, Saturday

    Time Temperature Precipitation Wind Pressure Humidity
    00:00 +7°C° 0 mm 1 mps 717 mmHg 96%
    01:00 +7°C° 0 mm 1 mps 717 mmHg 96%
    02:00 +7°C° 0 mm 1 mps 717 mmHg 96%
    03:00 +7°C° 0 mm 1 mps 717 mmHg 96%
    04:00 +7°C° 0 mm 1 mps 717 mmHg 97%
    05:00 +7°C° 0 mm 1 mps 717 mmHg 96%
    06:00 +7°C° 0 mm 1 mps 717 mmHg 96%
    07:00 +7°C° 0 mm 1 mps 717 mmHg 96%
    08:00 +9°C° 0 mm 1 mps 718 mmHg 85%
    09:00 +12°C° 0 mm 1 mps 718 mmHg 74%
    10:00 +14°C° 0 mm 1 mps 718 mmHg 64%
    11:00 +16°C° 0 mm 1 mps 718 mmHg 56%
    12:00 +19°C° 0 mm 1 mps 718 mmHg 49%
    13:00 +19°C° 0 mm 2 mps 717 mmHg 41%
    14:00 +19°C° 0 mm 2 mps 717 mmHg 44%
    15:00 +18°C° 0 mm 2 mps 717 mmHg 47%
    16:00 +18°C° 0 mm 2 mps 717 mmHg 49%
    17:00 +15°C° 0 mm 1 mps 717 mmHg 60%
    18:00 +13°C° 0 mm 1 mps 716 mmHg 70%
    19:00 +10°C° 0 mm 1 mps 716 mmHg 80%
    20:00 +10°C° 0 mm 1 mps 717 mmHg 82%
    21:00 +9°C° 0 mm 1 mps 717 mmHg 83%
    22:00 +9°C° 0 mm 1 mps 717 mmHg 85%
    23:00 +8°C° 0 mm 1 mps 717 mmHg 84%

    Tomorrow, 27 May, Sunday

    Time Temperature Precipitation Wind Pressure Humidity
    00:00 +8°C° 0 mm 1 mps 717 mmHg 83%
    01:00 +8°C° 0 mm 1 mps 716 mmHg 82%
    02:00 +8°C° 0 mm 1 mps 716 mmHg 81%
    03:00 +8°C° 0 mm 1 mps 716 mmHg 80%
    04:00 +7°C° 0 mm 1 mps 716 mmHg 79%
    05:00 +7°C° 0 mm 1 mps 716 mmHg 80%
    06:00 +7°C° 0 mm 1 mps 717 mmHg 81%
    07:00 +7°C° 0 mm 1 mps 717 mmHg 82%
    08:00 +10°C° 0 mm 1 mps 717 mmHg 72%
    09:00 +13°C° 0 mm 1 mps 717 mmHg 63%
    10:00 +16°C° 0 mm 1 mps 718 mmHg 53%
    11:00 +18°C° 0 mm 1 mps 717 mmHg 49%
    12:00 +19°C° 0 mm 2 mps 717 mmHg 46%
    13:00 +20°C° 0 mm 2 mps 716 mmHg 42%
    14:00 +19°C° 0 mm 2 mps 716 mmHg 46%
    15:00 +18°C° 0 mm 2 mps 716 mmHg 50%
    16:00 +19°C° 0 mm 1 mps 716 mmHg 53%
    17:00 +15°C° 0 mm 1 mps 716 mmHg 61%
    18:00 +13°C° 0 mm 1 mps 716 mmHg 69%
    19:00 +11°C° 0 mm 1 mps 716 mmHg 77%
    20:00 +11°C° 0 mm 1 mps 716 mmHg 78%
    21:00 +11°C° 0 mm 1 mps 716 mmHg 78%
    22:00 +11°C° 0 mm 1 mps 716 mmHg 78%
    23:00 +10°C° 0 mm 0 mps 716 mmHg 78%

    Day after tomorrow, 28 May, Monday

    Time Temperature Precipitation Wind Pressure Humidity
    00:00 +9°C° 0 mm 0 mps 716 mmHg 79%
    01:00 +9°C° 0 mm 0 mps 716 mmHg 79%
    02:00 +9°C° 0 mm 0 mps 716 mmHg 79%
    03:00 +9°C° 0 mm 0 mps 715 mmHg 80%
    04:00 +9°C° 0 mm 0 mps 715 mmHg 81%
    05:00 +8°C° 0 mm 0 mps 715 mmHg 82%
    06:00 +8°C° 0 mm 0 mps 715 mmHg 82%
    07:00 +8°C° 0 mm 0 mps 715 mmHg 83%
    08:00 +10°C° 0 mm 0 mps 716 mmHg 74%
    09:00 +14°C° 0 mm 1 mps 716 mmHg 64%
    10:00 +18°C° 0 mm 1 mps 716 mmHg 54%
    11:00 +19°C° 0 mm 1 mps 716 mmHg 51%
    12:00 +20°C° 0 mm 1 mps 715 mmHg 47%
    13:00 +21°C° 0 mm 1 mps 715 mmHg 44%
    14:00 +20°C° 0 mm 1 mps 715 mmHg 47%
    15:00 +19°C° 0 mm 1 mps 714 mmHg 51%
    16:00 +19°C° 0 mm 1 mps 714 mmHg 54%
    17:00 +16°C° 0 mm 1 mps 714 mmHg 62%
    18:00 +14°C° 0 mm 1 mps 714 mmHg 70%
    19:00 +12°C° 0 mm 1 mps 714 mmHg 78%
    20:00 +11°C° 0 mm 1 mps 714 mmHg 80%
    21:00 +10°C° 0 mm 1 mps 714 mmHg 82%
    22:00 +10°C° 0 mm 1 mps 714 mmHg 84%
    23:00 +9°C° 0 mm 1 mps 714 mmHg 84%

    29 May, Tuesday

    Time Temperature Precipitation Wind Pressure Humidity
    00:00 +9°C° 0 mm 1 mps 713 mmHg 84%
    01:00 +9°C° 0 mm 1 mps 713 mmHg 84%
    02:00 +8°C° 0 mm 1 mps 713 mmHg 84%
    03:00 +8°C° 0 mm 1 mps 712 mmHg 83%
    04:00 +8°C° 0 mm 1 mps 712 mmHg 83%
    05:00 +8°C° 0 mm 1 mps 712 mmHg 83%
    06:00 +7°C° 0 mm 1 mps 712 mmHg 82%
    07:00 +7°C° 0 mm 1 mps 712 mmHg 82%
    08:00 +9°C° 0 mm 2 mps 712 mmHg 72%
    09:00 +11°C° 0 mm 3 mps 712 mmHg 63%
    10:00 +14°C° 0 mm 3 mps 712 mmHg 53%
    11:00 +15°C° 0 mm 4 mps 712 mmHg 52%
    12:00 +17°C° 0 mm 5 mps 711 mmHg 50%
    13:00 +19°C° 0 mm 5 mps 711 mmHg 49%
    14:00 +17°C° 0.1 mm 5 mps 710 mmHg 54%
    15:00 +17°C° 0.1 mm 4 mps 710 mmHg 60%
    16:00 +17°C° 0.1 mm 4 mps 709 mmHg 65%
    17:00 +14°C° 0 mm 3 mps 709 mmHg 73%
    18:00 +12°C° 0 mm 3 mps 709 mmHg 80%
    19:00 +12°C° 0 mm 2 mps 709 mmHg 87%
    20:00 +11°C° 0.3 mm 3 mps 709 mmHg 88%
    21:00 +11°C° 0.3 mm 3 mps 709 mmHg 88%
    22:00 +11°C° 0.3 mm 3 mps 710 mmHg 88%
    23:00 +10°C° 0 mm 3 mps 710 mmHg 87%

    30 May, Wednesday

    Time Temperature Precipitation Wind Pressure Humidity
    00:00 +9°C° 0 mm 3 mps 710 mmHg 87%
    01:00 +8°C° 0 mm 3 mps 710 mmHg 86%
    02:00 +7°C° 0 mm 2 mps 710 mmHg 87%
    03:00 +6°C° 0 mm 2 mps 710 mmHg 88%
    04:00 +5°C° 0 mm 2 mps 710 mmHg 89%
    05:00 +4°C° 0.3 mm 3 mps 710 mmHg 89%
    06:00 +4°C° 0.3 mm 3 mps 711 mmHg 89%
    07:00 +5°C° 0.3 mm 3 mps 712 mmHg 89%
    08:00 +5°C° 0.1 mm 4 mps 712 mmHg 85%
    09:00 +6°C° 0.1 mm 4 mps 713 mmHg 80%
    10:00 +7°C° 0.1 mm 4 mps 713 mmHg 76%
    11:00 +8°C° 0 mm 4 mps 713 mmHg 64%
    12:00 +11°C° 0 mm 4 mps 713 mmHg 52%
    13:00 +12°C° 0 mm 4 mps 713 mmHg 40%
    14:00 +12°C° 0 mm 4 mps 713 mmHg 41%
    15:00 +11°C° 0 mm 4 mps 713 mmHg 41%
    16:00 +11°C° 0 mm 4 mps 713 mmHg 42%
    17:00 +8°C° 0 mm 4 mps 714 mmHg 50%
    18:00 +7°C° 0 mm 3 mps 714 mmHg 59%
    19:00 +4°C° 0 mm 3 mps 714 mmHg 68%
    20:00 +4°C° 0 mm 3 mps 714 mmHg 69%
    21:00 +4°C° 0 mm 4 mps 714 mmHg 71%
    22:00 +4°C° 0 mm 4 mps 714 mmHg 73%
    23:00 +4°C° 0 mm 4 mps 714 mmHg 73%

    31 May, Thursday

    Time Temperature Precipitation Wind Pressure Humidity
    00:00 +4°C° 0 mm 4 mps 714 mmHg 74%
    01:00 +5°C° 0 mm 4 mps 713 mmHg 75%
    02:00 +5°C° 0 mm 4 mps 713 mmHg 75%
    03:00 +5°C° 0 mm 4 mps 713 mmHg 76%
    04:00 +5°C° 0 mm 4 mps 712 mmHg 77%
    05:00 +5°C° 0 mm 4 mps 713 mmHg 77%
    06:00 +5°C° 0 mm 4 mps 713 mmHg 78%
    07:00 +5°C° 0 mm 4 mps 713 mmHg 78%
    08:00 +6°C° 0 mm 4 mps 713 mmHg 72%
    09:00 +7°C° 0 mm 5 mps 713 mmHg 66%
    10:00 +8°C° 0 mm 5 mps 713 mmHg 60%
    11:00 +8°C° 0 mm 5 mps 713 mmHg 56%
    12:00 +9°C° 0 mm 5 mps 712 mmHg 53%
    13:00 +10°C° 0 mm 5 mps 712 mmHg 49%
    14:00 +9°C° 0 mm 5 mps 712 mmHg 51%
    15:00 +8°C° 0 mm 5 mps 711 mmHg 53%
    16:00 +8°C° 0 mm 5 mps 711 mmHg 56%
    17:00 +7°C° 0 mm 5 mps 711 mmHg 60%
    18:00 +6°C° 0 mm 4 mps 711 mmHg 64%
    19:00 +4°C° 0 mm 4 mps 711 mmHg 68%
    20:00 +4°C° 0 mm 4 mps 711 mmHg 69%
    21:00 +4°C° 0 mm 3 mps 711 mmHg 70%
    22:00 +3°C° 0 mm 3 mps 711 mmHg 71%
    23:00 +3°C° 0 mm 3 mps 711 mmHg 73%
    Show more